<?xml version="1.0" encoding="UTF-8" standalone="no" ?>
<gpx xmlns="http://www.topografix.com/GPX/1/1" xmlns:xsi="http://www.w3.org/2001/XMLSchema-instance" xsi:schemaLocation="http://www.topografix.com/GPX/1/1 http://www.topografix.com/GPX/1/1/gpx.xsd" version="1.1" creator="VisuGPX - https://www.visugpx.com">
  <metadata>
    <name>Belle-isle-en-terre - 10.13 km - RANDO MUCO 2023 circuit B</name>
  </metadata>
  <wpt lat="48.52247" lon="-3.39455">
    <ele>112.4</ele>
  </wpt>
  <wpt lat="48.51672" lon="-3.40805">
    <ele>135.9</ele>
  </wpt>
  <trk>
    <name><![CDATA[Pédestre 10km Loc Envel 2023-10532228]]></name>
    <extensions>
      <line xmlns="http://www.topografix.com/GPX/gpx_style/0/2">
        <color>0000FF</color>
        <width>4</width>
      </line>
    </extensions>
    <trkseg>
      <trkpt lat="48.54642" lon="-3.39656">
        <ele>90</ele>
        <time>2023-04-13T07:21:58Z</time>
      </trkpt>
      <trkpt lat="48.54616" lon="-3.3958">
        <ele>91</ele>
        <time>2023-04-13T07:23:14Z</time>
      </trkpt>
      <trkpt lat="48.54628" lon="-3.39572">
        <ele>91</ele>
        <time>2023-04-13T07:23:31Z</time>
      </trkpt>
      <trkpt lat="48.54616" lon="-3.3958">
        <ele>91</ele>
        <time>2023-04-13T07:23:49Z</time>
      </trkpt>
      <trkpt lat="48.54599" lon="-3.39582">
        <ele>90</ele>
        <time>2023-04-13T07:24:11Z</time>
      </trkpt>
      <trkpt lat="48.5459" lon="-3.39583">
        <ele>90</ele>
        <time>2023-04-13T07:24:23Z</time>
      </trkpt>
      <trkpt lat="48.54584" lon="-3.39583">
        <ele>90</ele>
        <time>2023-04-13T07:24:31Z</time>
      </trkpt>
      <trkpt lat="48.54582" lon="-3.39568">
        <ele>90</ele>
        <time>2023-04-13T07:24:45Z</time>
      </trkpt>
      <trkpt lat="48.54567" lon="-3.39566">
        <ele>91</ele>
        <time>2023-04-13T07:25:05Z</time>
      </trkpt>
      <trkpt lat="48.54541" lon="-3.39568">
        <ele>92</ele>
        <time>2023-04-13T07:25:40Z</time>
      </trkpt>
      <trkpt lat="48.54533" lon="-3.39571">
        <ele>93</ele>
        <time>2023-04-13T07:25:51Z</time>
      </trkpt>
      <trkpt lat="48.54526" lon="-3.39579">
        <ele>93</ele>
        <time>2023-04-13T07:26:02Z</time>
      </trkpt>
      <trkpt lat="48.54524" lon="-3.39584">
        <ele>93</ele>
        <time>2023-04-13T07:26:08Z</time>
      </trkpt>
      <trkpt lat="48.54513" lon="-3.39587">
        <ele>93</ele>
        <time>2023-04-13T07:26:23Z</time>
      </trkpt>
      <trkpt lat="48.5447" lon="-3.39587">
        <ele>94</ele>
        <time>2023-04-13T07:27:20Z</time>
      </trkpt>
      <trkpt lat="48.54468" lon="-3.39601">
        <ele>94</ele>
        <time>2023-04-13T07:27:33Z</time>
      </trkpt>
      <trkpt lat="48.54464" lon="-3.39603">
        <ele>94</ele>
        <time>2023-04-13T07:27:38Z</time>
      </trkpt>
      <trkpt lat="48.54448" lon="-3.39608">
        <ele>94</ele>
        <time>2023-04-13T07:28:00Z</time>
      </trkpt>
      <trkpt lat="48.54417" lon="-3.39612">
        <ele>94</ele>
        <time>2023-04-13T07:28:42Z</time>
      </trkpt>
      <trkpt lat="48.54372" lon="-3.39576">
        <ele>95</ele>
        <time>2023-04-13T07:29:49Z</time>
      </trkpt>
      <trkpt lat="48.54374" lon="-3.39572">
        <ele>95</ele>
        <time>2023-04-13T07:29:54Z</time>
      </trkpt>
      <trkpt lat="48.54372" lon="-3.39576">
        <ele>95</ele>
        <time>2023-04-13T07:29:58Z</time>
      </trkpt>
      <trkpt lat="48.54311" lon="-3.39582">
        <ele>97</ele>
        <time>2023-04-13T07:31:20Z</time>
      </trkpt>
      <trkpt lat="48.54275" lon="-3.39572">
        <ele>99</ele>
        <time>2023-04-13T07:32:09Z</time>
      </trkpt>
      <trkpt lat="48.54276" lon="-3.39612">
        <ele>98</ele>
        <time>2023-04-13T07:32:44Z</time>
      </trkpt>
      <trkpt lat="48.54112" lon="-3.39628">
        <ele>106</ele>
        <time>2023-04-13T07:36:23Z</time>
      </trkpt>
      <trkpt lat="48.54092" lon="-3.39632">
        <ele>106</ele>
        <time>2023-04-13T07:36:50Z</time>
      </trkpt>
      <trkpt lat="48.54069" lon="-3.39654">
        <ele>105</ele>
        <time>2023-04-13T07:37:27Z</time>
      </trkpt>
      <trkpt lat="48.54047" lon="-3.39661">
        <ele>105</ele>
        <time>2023-04-13T07:37:57Z</time>
      </trkpt>
      <trkpt lat="48.5401" lon="-3.39686">
        <ele>104</ele>
        <time>2023-04-13T07:38:51Z</time>
      </trkpt>
      <trkpt lat="48.53996" lon="-3.39687">
        <ele>104</ele>
        <time>2023-04-13T07:39:09Z</time>
      </trkpt>
      <trkpt lat="48.53951" lon="-3.39681">
        <ele>104</ele>
        <time>2023-04-13T07:40:10Z</time>
      </trkpt>
      <trkpt lat="48.53932" lon="-3.39671">
        <ele>103</ele>
        <time>2023-04-13T07:40:37Z</time>
      </trkpt>
      <trkpt lat="48.53922" lon="-3.39656">
        <ele>105</ele>
        <time>2023-04-13T07:40:55Z</time>
      </trkpt>
      <trkpt lat="48.5389" lon="-3.39616">
        <ele>106</ele>
        <time>2023-04-13T07:41:51Z</time>
      </trkpt>
      <trkpt lat="48.53873" lon="-3.39583">
        <ele>107</ele>
        <time>2023-04-13T07:42:28Z</time>
      </trkpt>
      <trkpt lat="48.5386" lon="-3.39552">
        <ele>106</ele>
        <time>2023-04-13T07:43:00Z</time>
      </trkpt>
      <trkpt lat="48.53852" lon="-3.39517">
        <ele>105</ele>
        <time>2023-04-13T07:43:33Z</time>
      </trkpt>
      <trkpt lat="48.53848" lon="-3.39486">
        <ele>106</ele>
        <time>2023-04-13T07:44:01Z</time>
      </trkpt>
      <trkpt lat="48.53842" lon="-3.39462">
        <ele>106</ele>
        <time>2023-04-13T07:44:23Z</time>
      </trkpt>
      <trkpt lat="48.53841" lon="-3.39444">
        <ele>106</ele>
        <time>2023-04-13T07:44:39Z</time>
      </trkpt>
      <trkpt lat="48.53835" lon="-3.394">
        <ele>108</ele>
        <time>2023-04-13T07:45:19Z</time>
      </trkpt>
      <trkpt lat="48.53826" lon="-3.39355">
        <ele>112</ele>
        <time>2023-04-13T07:46:01Z</time>
      </trkpt>
      <trkpt lat="48.53802" lon="-3.39268">
        <ele>119</ele>
        <time>2023-04-13T07:47:24Z</time>
      </trkpt>
      <trkpt lat="48.53788" lon="-3.39249">
        <ele>120</ele>
        <time>2023-04-13T07:47:49Z</time>
      </trkpt>
      <trkpt lat="48.53769" lon="-3.39228">
        <ele>119</ele>
        <time>2023-04-13T07:48:20Z</time>
      </trkpt>
      <trkpt lat="48.53722" lon="-3.39202">
        <ele>120</ele>
        <time>2023-04-13T07:49:27Z</time>
      </trkpt>
      <trkpt lat="48.53681" lon="-3.39185">
        <ele>122</ele>
        <time>2023-04-13T07:50:24Z</time>
      </trkpt>
      <trkpt lat="48.53642" lon="-3.39177">
        <ele>124</ele>
        <time>2023-04-13T07:51:17Z</time>
      </trkpt>
      <trkpt lat="48.53582" lon="-3.39172">
        <ele>127</ele>
        <time>2023-04-13T07:52:37Z</time>
      </trkpt>
      <trkpt lat="48.5348" lon="-3.39172">
        <ele>129</ele>
        <time>2023-04-13T07:54:53Z</time>
      </trkpt>
      <trkpt lat="48.53464" lon="-3.39174">
        <ele>127</ele>
        <time>2023-04-13T07:55:14Z</time>
      </trkpt>
      <trkpt lat="48.53415" lon="-3.39175">
        <ele>125</ele>
        <time>2023-04-13T07:56:20Z</time>
      </trkpt>
      <trkpt lat="48.53388" lon="-3.39192">
        <ele>120</ele>
        <time>2023-04-13T07:56:59Z</time>
      </trkpt>
      <trkpt lat="48.53378" lon="-3.39194">
        <ele>119</ele>
        <time>2023-04-13T07:57:12Z</time>
      </trkpt>
      <trkpt lat="48.5337" lon="-3.39198">
        <ele>118</ele>
        <time>2023-04-13T07:57:23Z</time>
      </trkpt>
      <trkpt lat="48.53364" lon="-3.3921">
        <ele>116</ele>
        <time>2023-04-13T07:57:37Z</time>
      </trkpt>
      <trkpt lat="48.5336" lon="-3.39221">
        <ele>114</ele>
        <time>2023-04-13T07:57:48Z</time>
      </trkpt>
      <trkpt lat="48.53351" lon="-3.39229">
        <ele>112</ele>
        <time>2023-04-13T07:58:02Z</time>
      </trkpt>
      <trkpt lat="48.53335" lon="-3.39256">
        <ele>107</ele>
        <time>2023-04-13T07:58:34Z</time>
      </trkpt>
      <trkpt lat="48.53324" lon="-3.39286">
        <ele>105</ele>
        <time>2023-04-13T07:59:04Z</time>
      </trkpt>
      <trkpt lat="48.53318" lon="-3.39294">
        <ele>105</ele>
        <time>2023-04-13T07:59:15Z</time>
      </trkpt>
      <trkpt lat="48.53303" lon="-3.39301">
        <ele>106</ele>
        <time>2023-04-13T07:59:36Z</time>
      </trkpt>
      <trkpt lat="48.53286" lon="-3.39314">
        <ele>105</ele>
        <time>2023-04-13T08:00:01Z</time>
      </trkpt>
      <trkpt lat="48.53241" lon="-3.39326">
        <ele>107</ele>
        <time>2023-04-13T08:01:02Z</time>
      </trkpt>
      <trkpt lat="48.53203" lon="-3.39346">
        <ele>110</ele>
        <time>2023-04-13T08:01:56Z</time>
      </trkpt>
      <trkpt lat="48.53182" lon="-3.39354">
        <ele>111</ele>
        <time>2023-04-13T08:02:25Z</time>
      </trkpt>
      <trkpt lat="48.53167" lon="-3.39363">
        <ele>111</ele>
        <time>2023-04-13T08:02:46Z</time>
      </trkpt>
      <trkpt lat="48.53156" lon="-3.39377">
        <ele>110</ele>
        <time>2023-04-13T08:03:05Z</time>
      </trkpt>
      <trkpt lat="48.53138" lon="-3.39384">
        <ele>110</ele>
        <time>2023-04-13T08:03:30Z</time>
      </trkpt>
      <trkpt lat="48.53074" lon="-3.394">
        <ele>112</ele>
        <time>2023-04-13T08:04:57Z</time>
      </trkpt>
      <trkpt lat="48.53033" lon="-3.39399">
        <ele>112</ele>
        <time>2023-04-13T08:05:52Z</time>
      </trkpt>
      <trkpt lat="48.52987" lon="-3.39406">
        <ele>110</ele>
        <time>2023-04-13T08:06:53Z</time>
      </trkpt>
      <trkpt lat="48.5297" lon="-3.39406">
        <ele>109</ele>
        <time>2023-04-13T08:07:16Z</time>
      </trkpt>
      <trkpt lat="48.52957" lon="-3.39397">
        <ele>110</ele>
        <time>2023-04-13T08:07:35Z</time>
      </trkpt>
      <trkpt lat="48.52949" lon="-3.39381">
        <ele>112</ele>
        <time>2023-04-13T08:07:53Z</time>
      </trkpt>
      <trkpt lat="48.52938" lon="-3.39343">
        <ele>118</ele>
        <time>2023-04-13T08:08:29Z</time>
      </trkpt>
      <trkpt lat="48.52884" lon="-3.39305">
        <ele>115</ele>
        <time>2023-04-13T08:09:49Z</time>
      </trkpt>
      <trkpt lat="48.52869" lon="-3.39299">
        <ele>114</ele>
        <time>2023-04-13T08:10:10Z</time>
      </trkpt>
      <trkpt lat="48.52848" lon="-3.39299">
        <ele>111</ele>
        <time>2023-04-13T08:10:38Z</time>
      </trkpt>
      <trkpt lat="48.52794" lon="-3.39306">
        <ele>107</ele>
        <time>2023-04-13T08:11:50Z</time>
      </trkpt>
      <trkpt lat="48.52748" lon="-3.39306">
        <ele>107</ele>
        <time>2023-04-13T08:12:51Z</time>
      </trkpt>
      <trkpt lat="48.52676" lon="-3.39297">
        <ele>110</ele>
        <time>2023-04-13T08:14:28Z</time>
      </trkpt>
      <trkpt lat="48.52649" lon="-3.39303">
        <ele>112</ele>
        <time>2023-04-13T08:15:04Z</time>
      </trkpt>
      <trkpt lat="48.52642" lon="-3.39307">
        <ele>112</ele>
        <time>2023-04-13T08:15:14Z</time>
      </trkpt>
      <trkpt lat="48.52642" lon="-3.39307">
        <ele>112</ele>
        <time>2023-04-13T08:15:14Z</time>
      </trkpt>
      <trkpt lat="48.52634" lon="-3.39314">
        <ele>112</ele>
        <time>2023-04-13T08:15:26Z</time>
      </trkpt>
      <trkpt lat="48.52611" lon="-3.39346">
        <ele>112</ele>
        <time>2023-04-13T08:16:08Z</time>
      </trkpt>
      <trkpt lat="48.52586" lon="-3.39389">
        <ele>111</ele>
        <time>2023-04-13T08:16:59Z</time>
      </trkpt>
      <trkpt lat="48.52467" lon="-3.39566">
        <ele>110</ele>
        <time>2023-04-13T08:20:42Z</time>
      </trkpt>
      <trkpt lat="48.52454" lon="-3.39578">
        <ele>110</ele>
        <time>2023-04-13T08:21:02Z</time>
      </trkpt>
      <trkpt lat="48.52439" lon="-3.39586">
        <ele>109</ele>
        <time>2023-04-13T08:21:23Z</time>
      </trkpt>
      <trkpt lat="48.52421" lon="-3.39591">
        <ele>109</ele>
        <time>2023-04-13T08:21:48Z</time>
      </trkpt>
      <trkpt lat="48.52412" lon="-3.3959">
        <ele>109</ele>
        <time>2023-04-13T08:22:00Z</time>
      </trkpt>
      <trkpt lat="48.52394" lon="-3.39577">
        <ele>109</ele>
        <time>2023-04-13T08:22:26Z</time>
      </trkpt>
      <trkpt lat="48.52381" lon="-3.39564">
        <ele>110</ele>
        <time>2023-04-13T08:22:47Z</time>
      </trkpt>
      <trkpt lat="48.52321" lon="-3.39461">
        <ele>111</ele>
        <time>2023-04-13T08:24:48Z</time>
      </trkpt>
      <trkpt lat="48.52308" lon="-3.39448">
        <ele>113</ele>
        <time>2023-04-13T08:25:09Z</time>
      </trkpt>
      <trkpt lat="48.52293" lon="-3.39442">
        <ele>113</ele>
        <time>2023-04-13T08:25:30Z</time>
      </trkpt>
      <trkpt lat="48.52267" lon="-3.39448">
        <ele>114</ele>
        <time>2023-04-13T08:26:05Z</time>
      </trkpt>
      <trkpt lat="48.52248" lon="-3.39463">
        <ele>116</ele>
        <time>2023-04-13T08:26:34Z</time>
      </trkpt>
      <trkpt lat="48.52241" lon="-3.39472">
        <ele>117</ele>
        <time>2023-04-13T08:26:46Z</time>
      </trkpt>
      <trkpt lat="48.52213" lon="-3.39414">
        <ele>124</ele>
        <time>2023-04-13T08:27:49Z</time>
      </trkpt>
      <trkpt lat="48.52176" lon="-3.39362">
        <ele>130</ele>
        <time>2023-04-13T08:28:57Z</time>
      </trkpt>
      <trkpt lat="48.52163" lon="-3.39325">
        <ele>130</ele>
        <time>2023-04-13T08:29:34Z</time>
      </trkpt>
      <trkpt lat="48.52142" lon="-3.39331">
        <ele>136</ele>
        <time>2023-04-13T08:30:02Z</time>
      </trkpt>
      <trkpt lat="48.52117" lon="-3.39318">
        <ele>141</ele>
        <time>2023-04-13T08:30:38Z</time>
      </trkpt>
      <trkpt lat="48.52088" lon="-3.39284">
        <ele>146</ele>
        <time>2023-04-13T08:31:27Z</time>
      </trkpt>
      <trkpt lat="48.52073" lon="-3.3926">
        <ele>149</ele>
        <time>2023-04-13T08:31:56Z</time>
      </trkpt>
      <trkpt lat="48.52059" lon="-3.3925">
        <ele>152</ele>
        <time>2023-04-13T08:32:16Z</time>
      </trkpt>
      <trkpt lat="48.52032" lon="-3.39248">
        <ele>159</ele>
        <time>2023-04-13T08:32:52Z</time>
      </trkpt>
      <trkpt lat="48.51992" lon="-3.39254">
        <ele>169</ele>
        <time>2023-04-13T08:33:46Z</time>
      </trkpt>
      <trkpt lat="48.51964" lon="-3.39243">
        <ele>172</ele>
        <time>2023-04-13T08:34:25Z</time>
      </trkpt>
      <trkpt lat="48.51865" lon="-3.39181">
        <ele>184</ele>
        <time>2023-04-13T08:36:48Z</time>
      </trkpt>
      <trkpt lat="48.51833" lon="-3.39184">
        <ele>185</ele>
        <time>2023-04-13T08:37:31Z</time>
      </trkpt>
      <trkpt lat="48.51803" lon="-3.39191">
        <ele>184</ele>
        <time>2023-04-13T08:38:11Z</time>
      </trkpt>
      <trkpt lat="48.5177" lon="-3.39205">
        <ele>183</ele>
        <time>2023-04-13T08:38:57Z</time>
      </trkpt>
      <trkpt lat="48.51742" lon="-3.39238">
        <ele>183</ele>
        <time>2023-04-13T08:39:44Z</time>
      </trkpt>
      <trkpt lat="48.51733" lon="-3.39265">
        <ele>182</ele>
        <time>2023-04-13T08:40:11Z</time>
      </trkpt>
      <trkpt lat="48.51709" lon="-3.393">
        <ele>181</ele>
        <time>2023-04-13T08:40:55Z</time>
      </trkpt>
      <trkpt lat="48.51688" lon="-3.39326">
        <ele>181</ele>
        <time>2023-04-13T08:41:32Z</time>
      </trkpt>
      <trkpt lat="48.5166" lon="-3.39343">
        <ele>181</ele>
        <time>2023-04-13T08:42:12Z</time>
      </trkpt>
      <trkpt lat="48.51637" lon="-3.39352">
        <ele>180</ele>
        <time>2023-04-13T08:42:44Z</time>
      </trkpt>
      <trkpt lat="48.51635" lon="-3.39425">
        <ele>176</ele>
        <time>2023-04-13T08:43:48Z</time>
      </trkpt>
      <trkpt lat="48.51637" lon="-3.39603">
        <ele>169</ele>
        <time>2023-04-13T08:46:26Z</time>
      </trkpt>
      <trkpt lat="48.51648" lon="-3.3968">
        <ele>167</ele>
        <time>2023-04-13T08:47:35Z</time>
      </trkpt>
      <trkpt lat="48.51656" lon="-3.39705">
        <ele>165</ele>
        <time>2023-04-13T08:48:00Z</time>
      </trkpt>
      <trkpt lat="48.5162" lon="-3.39723">
        <ele>166</ele>
        <time>2023-04-13T08:48:50Z</time>
      </trkpt>
      <trkpt lat="48.51608" lon="-3.39822">
        <ele>163</ele>
        <time>2023-04-13T08:50:19Z</time>
      </trkpt>
      <trkpt lat="48.51581" lon="-3.39871">
        <ele>165</ele>
        <time>2023-04-13T08:51:16Z</time>
      </trkpt>
      <trkpt lat="48.51599" lon="-3.39824">
        <ele>164</ele>
        <time>2023-04-13T08:52:04Z</time>
      </trkpt>
      <trkpt lat="48.51605" lon="-3.39785">
        <ele>165</ele>
        <time>2023-04-13T08:52:39Z</time>
      </trkpt>
      <trkpt lat="48.51602" lon="-3.3972">
        <ele>168</ele>
        <time>2023-04-13T08:53:37Z</time>
      </trkpt>
      <trkpt lat="48.51605" lon="-3.39785">
        <ele>165</ele>
        <time>2023-04-13T08:54:34Z</time>
      </trkpt>
      <trkpt lat="48.51599" lon="-3.39824">
        <ele>164</ele>
        <time>2023-04-13T08:55:10Z</time>
      </trkpt>
      <trkpt lat="48.51581" lon="-3.39871">
        <ele>165</ele>
        <time>2023-04-13T08:55:58Z</time>
      </trkpt>
      <trkpt lat="48.51608" lon="-3.39821">
        <ele>163</ele>
        <time>2023-04-13T08:56:55Z</time>
      </trkpt>
      <trkpt lat="48.51581" lon="-3.39871">
        <ele>165</ele>
        <time>2023-04-13T08:57:52Z</time>
      </trkpt>
      <trkpt lat="48.51579" lon="-3.39897">
        <ele>165</ele>
        <time>2023-04-13T08:58:15Z</time>
      </trkpt>
      <trkpt lat="48.5158" lon="-3.39911">
        <ele>164</ele>
        <time>2023-04-13T08:58:27Z</time>
      </trkpt>
      <trkpt lat="48.51595" lon="-3.3993">
        <ele>164</ele>
        <time>2023-04-13T08:58:53Z</time>
      </trkpt>
      <trkpt lat="48.51605" lon="-3.39938">
        <ele>164</ele>
        <time>2023-04-13T08:59:09Z</time>
      </trkpt>
      <trkpt lat="48.51635" lon="-3.39939">
        <ele>162</ele>
        <time>2023-04-13T08:59:49Z</time>
      </trkpt>
      <trkpt lat="48.51643" lon="-3.39941">
        <ele>162</ele>
        <time>2023-04-13T08:59:59Z</time>
      </trkpt>
      <trkpt lat="48.51701" lon="-3.40001">
        <ele>158</ele>
        <time>2023-04-13T09:01:33Z</time>
      </trkpt>
      <trkpt lat="48.51732" lon="-3.40038">
        <ele>155</ele>
        <time>2023-04-13T09:02:26Z</time>
      </trkpt>
      <trkpt lat="48.51762" lon="-3.40081">
        <ele>154</ele>
        <time>2023-04-13T09:03:21Z</time>
      </trkpt>
      <trkpt lat="48.51807" lon="-3.40131">
        <ele>145</ele>
        <time>2023-04-13T09:04:36Z</time>
      </trkpt>
      <trkpt lat="48.51814" lon="-3.40148">
        <ele>143</ele>
        <time>2023-04-13T09:04:53Z</time>
      </trkpt>
      <trkpt lat="48.51811" lon="-3.40182">
        <ele>142</ele>
        <time>2023-04-13T09:05:24Z</time>
      </trkpt>
      <trkpt lat="48.51807" lon="-3.40202">
        <ele>141</ele>
        <time>2023-04-13T09:05:42Z</time>
      </trkpt>
      <trkpt lat="48.51767" lon="-3.40305">
        <ele>145</ele>
        <time>2023-04-13T09:07:28Z</time>
      </trkpt>
      <trkpt lat="48.51742" lon="-3.40381">
        <ele>149</ele>
        <time>2023-04-13T09:08:43Z</time>
      </trkpt>
      <trkpt lat="48.51738" lon="-3.40419">
        <ele>148</ele>
        <time>2023-04-13T09:09:17Z</time>
      </trkpt>
      <trkpt lat="48.51736" lon="-3.40502">
        <ele>145</ele>
        <time>2023-04-13T09:10:30Z</time>
      </trkpt>
      <trkpt lat="48.51733" lon="-3.40541">
        <ele>143</ele>
        <time>2023-04-13T09:11:05Z</time>
      </trkpt>
      <trkpt lat="48.51721" lon="-3.40593">
        <ele>142</ele>
        <time>2023-04-13T09:11:54Z</time>
      </trkpt>
      <trkpt lat="48.5172" lon="-3.40607">
        <ele>141</ele>
        <time>2023-04-13T09:12:06Z</time>
      </trkpt>
      <trkpt lat="48.51714" lon="-3.40616">
        <ele>142</ele>
        <time>2023-04-13T09:12:17Z</time>
      </trkpt>
      <trkpt lat="48.51709" lon="-3.40618">
        <ele>143</ele>
        <time>2023-04-13T09:12:24Z</time>
      </trkpt>
      <trkpt lat="48.51704" lon="-3.40628">
        <ele>143</ele>
        <time>2023-04-13T09:12:35Z</time>
      </trkpt>
      <trkpt lat="48.51695" lon="-3.40633">
        <ele>145</ele>
        <time>2023-04-13T09:12:48Z</time>
      </trkpt>
      <trkpt lat="48.51687" lon="-3.40643">
        <ele>146</ele>
        <time>2023-04-13T09:13:02Z</time>
      </trkpt>
      <trkpt lat="48.51677" lon="-3.40658">
        <ele>147</ele>
        <time>2023-04-13T09:13:21Z</time>
      </trkpt>
      <trkpt lat="48.51669" lon="-3.40683">
        <ele>146</ele>
        <time>2023-04-13T09:13:45Z</time>
      </trkpt>
      <trkpt lat="48.51665" lon="-3.40691">
        <ele>146</ele>
        <time>2023-04-13T09:13:54Z</time>
      </trkpt>
      <trkpt lat="48.51657" lon="-3.40702">
        <ele>146</ele>
        <time>2023-04-13T09:14:09Z</time>
      </trkpt>
      <trkpt lat="48.51641" lon="-3.40716">
        <ele>147</ele>
        <time>2023-04-13T09:14:33Z</time>
      </trkpt>
      <trkpt lat="48.51633" lon="-3.40693">
        <ele>149</ele>
        <time>2023-04-13T09:14:56Z</time>
      </trkpt>
      <trkpt lat="48.51641" lon="-3.40716">
        <ele>147</ele>
        <time>2023-04-13T09:15:19Z</time>
      </trkpt>
      <trkpt lat="48.51645" lon="-3.40741">
        <ele>144</ele>
        <time>2023-04-13T09:15:42Z</time>
      </trkpt>
      <trkpt lat="48.51652" lon="-3.40762">
        <ele>143</ele>
        <time>2023-04-13T09:16:03Z</time>
      </trkpt>
      <trkpt lat="48.5166" lon="-3.40795">
        <ele>140</ele>
        <time>2023-04-13T09:16:34Z</time>
      </trkpt>
      <trkpt lat="48.51661" lon="-3.4082">
        <ele>139</ele>
        <time>2023-04-13T09:16:56Z</time>
      </trkpt>
      <trkpt lat="48.51693" lon="-3.40817">
        <ele>134</ele>
        <time>2023-04-13T09:17:39Z</time>
      </trkpt>
      <trkpt lat="48.51694" lon="-3.40804">
        <ele>135</ele>
        <time>2023-04-13T09:17:50Z</time>
      </trkpt>
      <trkpt lat="48.51696" lon="-3.408">
        <ele>134</ele>
        <time>2023-04-13T09:17:55Z</time>
      </trkpt>
      <trkpt lat="48.51694" lon="-3.40804">
        <ele>135</ele>
        <time>2023-04-13T09:17:59Z</time>
      </trkpt>
      <trkpt lat="48.51693" lon="-3.40817">
        <ele>134</ele>
        <time>2023-04-13T09:18:11Z</time>
      </trkpt>
      <trkpt lat="48.51704" lon="-3.40816">
        <ele>132</ele>
        <time>2023-04-13T09:18:25Z</time>
      </trkpt>
      <trkpt lat="48.5172" lon="-3.40799">
        <ele>131</ele>
        <time>2023-04-13T09:18:52Z</time>
      </trkpt>
      <trkpt lat="48.51727" lon="-3.40781">
        <ele>131</ele>
        <time>2023-04-13T09:19:10Z</time>
      </trkpt>
      <trkpt lat="48.51767" lon="-3.40569">
        <ele>132</ele>
        <time>2023-04-13T09:22:25Z</time>
      </trkpt>
      <trkpt lat="48.51791" lon="-3.40448">
        <ele>128</ele>
        <time>2023-04-13T09:24:16Z</time>
      </trkpt>
      <trkpt lat="48.51848" lon="-3.40251">
        <ele>125</ele>
        <time>2023-04-13T09:27:26Z</time>
      </trkpt>
      <trkpt lat="48.51866" lon="-3.40207">
        <ele>123</ele>
        <time>2023-04-13T09:28:12Z</time>
      </trkpt>
      <trkpt lat="48.5189" lon="-3.40158">
        <ele>116</ele>
        <time>2023-04-13T09:29:06Z</time>
      </trkpt>
      <trkpt lat="48.51909" lon="-3.40133">
        <ele>112</ele>
        <time>2023-04-13T09:29:40Z</time>
      </trkpt>
      <trkpt lat="48.51914" lon="-3.40144">
        <ele>109</ele>
        <time>2023-04-13T09:29:51Z</time>
      </trkpt>
      <trkpt lat="48.5192" lon="-3.40159">
        <ele>105</ele>
        <time>2023-04-13T09:30:07Z</time>
      </trkpt>
      <trkpt lat="48.51925" lon="-3.40171">
        <ele>104</ele>
        <time>2023-04-13T09:30:20Z</time>
      </trkpt>
      <trkpt lat="48.51945" lon="-3.40203">
        <ele>106</ele>
        <time>2023-04-13T09:30:58Z</time>
      </trkpt>
      <trkpt lat="48.51962" lon="-3.40225">
        <ele>108</ele>
        <time>2023-04-13T09:31:28Z</time>
      </trkpt>
      <trkpt lat="48.51971" lon="-3.40229">
        <ele>109</ele>
        <time>2023-04-13T09:31:41Z</time>
      </trkpt>
      <trkpt lat="48.51987" lon="-3.40238">
        <ele>111</ele>
        <time>2023-04-13T09:32:04Z</time>
      </trkpt>
      <trkpt lat="48.51999" lon="-3.40224">
        <ele>110</ele>
        <time>2023-04-13T09:32:24Z</time>
      </trkpt>
      <trkpt lat="48.52021" lon="-3.40202">
        <ele>109</ele>
        <time>2023-04-13T09:32:59Z</time>
      </trkpt>
      <trkpt lat="48.52045" lon="-3.40175">
        <ele>108</ele>
        <time>2023-04-13T09:33:39Z</time>
      </trkpt>
      <trkpt lat="48.52074" lon="-3.4016">
        <ele>109</ele>
        <time>2023-04-13T09:34:20Z</time>
      </trkpt>
      <trkpt lat="48.52124" lon="-3.4014">
        <ele>110</ele>
        <time>2023-04-13T09:35:29Z</time>
      </trkpt>
      <trkpt lat="48.5213" lon="-3.40153">
        <ele>112</ele>
        <time>2023-04-13T09:35:43Z</time>
      </trkpt>
      <trkpt lat="48.52173" lon="-3.40107">
        <ele>111</ele>
        <time>2023-04-13T09:36:53Z</time>
      </trkpt>
      <trkpt lat="48.5219" lon="-3.40096">
        <ele>112</ele>
        <time>2023-04-13T09:37:18Z</time>
      </trkpt>
      <trkpt lat="48.52201" lon="-3.40095">
        <ele>113</ele>
        <time>2023-04-13T09:37:33Z</time>
      </trkpt>
      <trkpt lat="48.52226" lon="-3.40111">
        <ele>117</ele>
        <time>2023-04-13T09:38:09Z</time>
      </trkpt>
      <trkpt lat="48.52238" lon="-3.40116">
        <ele>118</ele>
        <time>2023-04-13T09:38:25Z</time>
      </trkpt>
      <trkpt lat="48.52251" lon="-3.40111">
        <ele>119</ele>
        <time>2023-04-13T09:38:43Z</time>
      </trkpt>
      <trkpt lat="48.52262" lon="-3.40099">
        <ele>119</ele>
        <time>2023-04-13T09:39:01Z</time>
      </trkpt>
      <trkpt lat="48.52295" lon="-3.40046">
        <ele>114</ele>
        <time>2023-04-13T09:40:06Z</time>
      </trkpt>
      <trkpt lat="48.52366" lon="-3.39999">
        <ele>110</ele>
        <time>2023-04-13T09:41:49Z</time>
      </trkpt>
      <trkpt lat="48.52386" lon="-3.39996">
        <ele>111</ele>
        <time>2023-04-13T09:42:16Z</time>
      </trkpt>
      <trkpt lat="48.52409" lon="-3.39997">
        <ele>113</ele>
        <time>2023-04-13T09:42:47Z</time>
      </trkpt>
      <trkpt lat="48.52537" lon="-3.40008">
        <ele>125</ele>
        <time>2023-04-13T09:45:38Z</time>
      </trkpt>
      <trkpt lat="48.52553" lon="-3.40004">
        <ele>127</ele>
        <time>2023-04-13T09:45:59Z</time>
      </trkpt>
      <trkpt lat="48.52578" lon="-3.39962">
        <ele>122</ele>
        <time>2023-04-13T09:46:49Z</time>
      </trkpt>
      <trkpt lat="48.52593" lon="-3.39954">
        <ele>123</ele>
        <time>2023-04-13T09:47:11Z</time>
      </trkpt>
      <trkpt lat="48.52602" lon="-3.39945">
        <ele>123</ele>
        <time>2023-04-13T09:47:25Z</time>
      </trkpt>
      <trkpt lat="48.52606" lon="-3.3993">
        <ele>121</ele>
        <time>2023-04-13T09:47:39Z</time>
      </trkpt>
      <trkpt lat="48.52623" lon="-3.39918">
        <ele>121</ele>
        <time>2023-04-13T09:48:04Z</time>
      </trkpt>
      <trkpt lat="48.52641" lon="-3.39911">
        <ele>123</ele>
        <time>2023-04-13T09:48:29Z</time>
      </trkpt>
      <trkpt lat="48.52652" lon="-3.3989">
        <ele>122</ele>
        <time>2023-04-13T09:48:53Z</time>
      </trkpt>
      <trkpt lat="48.52657" lon="-3.39878">
        <ele>121</ele>
        <time>2023-04-13T09:49:05Z</time>
      </trkpt>
      <trkpt lat="48.527" lon="-3.39834">
        <ele>120</ele>
        <time>2023-04-13T09:50:15Z</time>
      </trkpt>
      <trkpt lat="48.52721" lon="-3.39821">
        <ele>121</ele>
        <time>2023-04-13T09:50:45Z</time>
      </trkpt>
      <trkpt lat="48.52733" lon="-3.39818">
        <ele>122</ele>
        <time>2023-04-13T09:51:01Z</time>
      </trkpt>
      <trkpt lat="48.52749" lon="-3.39811">
        <ele>123</ele>
        <time>2023-04-13T09:51:23Z</time>
      </trkpt>
      <trkpt lat="48.52772" lon="-3.39794">
        <ele>121</ele>
        <time>2023-04-13T09:51:58Z</time>
      </trkpt>
      <trkpt lat="48.52785" lon="-3.39789">
        <ele>121</ele>
        <time>2023-04-13T09:52:15Z</time>
      </trkpt>
      <trkpt lat="48.5279" lon="-3.39796">
        <ele>122</ele>
        <time>2023-04-13T09:52:25Z</time>
      </trkpt>
      <trkpt lat="48.52796" lon="-3.39818">
        <ele>124</ele>
        <time>2023-04-13T09:52:46Z</time>
      </trkpt>
      <trkpt lat="48.5281" lon="-3.39842">
        <ele>126</ele>
        <time>2023-04-13T09:53:14Z</time>
      </trkpt>
      <trkpt lat="48.52832" lon="-3.39851">
        <ele>127</ele>
        <time>2023-04-13T09:53:44Z</time>
      </trkpt>
      <trkpt lat="48.52866" lon="-3.39874">
        <ele>132</ele>
        <time>2023-04-13T09:54:34Z</time>
      </trkpt>
      <trkpt lat="48.52885" lon="-3.39869">
        <ele>134</ele>
        <time>2023-04-13T09:55:00Z</time>
      </trkpt>
      <trkpt lat="48.52904" lon="-3.39874">
        <ele>136</ele>
        <time>2023-04-13T09:55:25Z</time>
      </trkpt>
      <trkpt lat="48.52934" lon="-3.39914">
        <ele>139</ele>
        <time>2023-04-13T09:56:19Z</time>
      </trkpt>
      <trkpt lat="48.52956" lon="-3.39934">
        <ele>142</ele>
        <time>2023-04-13T09:56:53Z</time>
      </trkpt>
      <trkpt lat="48.5299" lon="-3.39956">
        <ele>145</ele>
        <time>2023-04-13T09:57:43Z</time>
      </trkpt>
      <trkpt lat="48.53009" lon="-3.39959">
        <ele>146</ele>
        <time>2023-04-13T09:58:08Z</time>
      </trkpt>
      <trkpt lat="48.5303" lon="-3.39969">
        <ele>148</ele>
        <time>2023-04-13T09:58:37Z</time>
      </trkpt>
      <trkpt lat="48.53071" lon="-3.39994">
        <ele>153</ele>
        <time>2023-04-13T09:59:36Z</time>
      </trkpt>
      <trkpt lat="48.53081" lon="-3.40003">
        <ele>154</ele>
        <time>2023-04-13T09:59:52Z</time>
      </trkpt>
      <trkpt lat="48.53097" lon="-3.40026">
        <ele>155</ele>
        <time>2023-04-13T10:00:21Z</time>
      </trkpt>
      <trkpt lat="48.53105" lon="-3.40041">
        <ele>156</ele>
        <time>2023-04-13T10:00:38Z</time>
      </trkpt>
      <trkpt lat="48.53123" lon="-3.40036">
        <ele>156</ele>
        <time>2023-04-13T10:01:03Z</time>
      </trkpt>
      <trkpt lat="48.5315" lon="-3.40043">
        <ele>158</ele>
        <time>2023-04-13T10:01:39Z</time>
      </trkpt>
      <trkpt lat="48.53281" lon="-3.40158">
        <ele>156</ele>
        <time>2023-04-13T10:05:02Z</time>
      </trkpt>
      <trkpt lat="48.53298" lon="-3.4017">
        <ele>155</ele>
        <time>2023-04-13T10:05:27Z</time>
      </trkpt>
      <trkpt lat="48.53311" lon="-3.40174">
        <ele>155</ele>
        <time>2023-04-13T10:05:44Z</time>
      </trkpt>
      <trkpt lat="48.53324" lon="-3.40174">
        <ele>155</ele>
        <time>2023-04-13T10:06:02Z</time>
      </trkpt>
      <trkpt lat="48.53338" lon="-3.40168">
        <ele>154</ele>
        <time>2023-04-13T10:06:21Z</time>
      </trkpt>
      <trkpt lat="48.53378" lon="-3.40131">
        <ele>151</ele>
        <time>2023-04-13T10:07:24Z</time>
      </trkpt>
      <trkpt lat="48.53386" lon="-3.40149">
        <ele>152</ele>
        <time>2023-04-13T10:07:43Z</time>
      </trkpt>
      <trkpt lat="48.53411" lon="-3.40189">
        <ele>151</ele>
        <time>2023-04-13T10:08:32Z</time>
      </trkpt>
      <trkpt lat="48.53431" lon="-3.40209">
        <ele>151</ele>
        <time>2023-04-13T10:09:04Z</time>
      </trkpt>
      <trkpt lat="48.53465" lon="-3.40222">
        <ele>150</ele>
        <time>2023-04-13T10:09:50Z</time>
      </trkpt>
      <trkpt lat="48.53486" lon="-3.40234">
        <ele>150</ele>
        <time>2023-04-13T10:10:20Z</time>
      </trkpt>
      <trkpt lat="48.5354" lon="-3.40151">
        <ele>147</ele>
        <time>2023-04-13T10:12:03Z</time>
      </trkpt>
      <trkpt lat="48.53578" lon="-3.40098">
        <ele>144</ele>
        <time>2023-04-13T10:13:12Z</time>
      </trkpt>
      <trkpt lat="48.53585" lon="-3.40093">
        <ele>144</ele>
        <time>2023-04-13T10:13:22Z</time>
      </trkpt>
      <trkpt lat="48.53591" lon="-3.40091">
        <ele>144</ele>
        <time>2023-04-13T10:13:31Z</time>
      </trkpt>
      <trkpt lat="48.53593" lon="-3.40078">
        <ele>143</ele>
        <time>2023-04-13T10:13:42Z</time>
      </trkpt>
      <trkpt lat="48.53591" lon="-3.40091">
        <ele>144</ele>
        <time>2023-04-13T10:13:54Z</time>
      </trkpt>
      <trkpt lat="48.53618" lon="-3.40135">
        <ele>143</ele>
        <time>2023-04-13T10:14:47Z</time>
      </trkpt>
      <trkpt lat="48.53653" lon="-3.40165">
        <ele>141</ele>
        <time>2023-04-13T10:15:41Z</time>
      </trkpt>
      <trkpt lat="48.53663" lon="-3.40162">
        <ele>140</ele>
        <time>2023-04-13T10:15:55Z</time>
      </trkpt>
      <trkpt lat="48.5367" lon="-3.40156">
        <ele>140</ele>
        <time>2023-04-13T10:16:05Z</time>
      </trkpt>
      <trkpt lat="48.53694" lon="-3.40114">
        <ele>137</ele>
        <time>2023-04-13T10:16:54Z</time>
      </trkpt>
      <trkpt lat="48.53718" lon="-3.40086">
        <ele>135</ele>
        <time>2023-04-13T10:17:35Z</time>
      </trkpt>
      <trkpt lat="48.53732" lon="-3.40086">
        <ele>134</ele>
        <time>2023-04-13T10:17:53Z</time>
      </trkpt>
      <trkpt lat="48.53759" lon="-3.40114">
        <ele>130</ele>
        <time>2023-04-13T10:18:37Z</time>
      </trkpt>
      <trkpt lat="48.53769" lon="-3.40115">
        <ele>128</ele>
        <time>2023-04-13T10:18:51Z</time>
      </trkpt>
      <trkpt lat="48.53775" lon="-3.40108">
        <ele>127</ele>
        <time>2023-04-13T10:19:01Z</time>
      </trkpt>
      <trkpt lat="48.53777" lon="-3.40096">
        <ele>126</ele>
        <time>2023-04-13T10:19:12Z</time>
      </trkpt>
      <trkpt lat="48.5379" lon="-3.40048">
        <ele>123</ele>
        <time>2023-04-13T10:19:57Z</time>
      </trkpt>
      <trkpt lat="48.53789" lon="-3.40014">
        <ele>123</ele>
        <time>2023-04-13T10:20:28Z</time>
      </trkpt>
      <trkpt lat="48.5378" lon="-3.39983">
        <ele>123</ele>
        <time>2023-04-13T10:20:57Z</time>
      </trkpt>
      <trkpt lat="48.53782" lon="-3.39976">
        <ele>123</ele>
        <time>2023-04-13T10:21:04Z</time>
      </trkpt>
      <trkpt lat="48.53793" lon="-3.39969">
        <ele>121</ele>
        <time>2023-04-13T10:21:20Z</time>
      </trkpt>
      <trkpt lat="48.53819" lon="-3.39962">
        <ele>119</ele>
        <time>2023-04-13T10:21:55Z</time>
      </trkpt>
      <trkpt lat="48.53828" lon="-3.39969">
        <ele>118</ele>
        <time>2023-04-13T10:22:09Z</time>
      </trkpt>
      <trkpt lat="48.53837" lon="-3.39968">
        <ele>117</ele>
        <time>2023-04-13T10:22:21Z</time>
      </trkpt>
      <trkpt lat="48.53854" lon="-3.39955">
        <ele>116</ele>
        <time>2023-04-13T10:22:46Z</time>
      </trkpt>
      <trkpt lat="48.5386" lon="-3.39943">
        <ele>115</ele>
        <time>2023-04-13T10:23:00Z</time>
      </trkpt>
      <trkpt lat="48.53868" lon="-3.39939">
        <ele>114</ele>
        <time>2023-04-13T10:23:11Z</time>
      </trkpt>
      <trkpt lat="48.5388" lon="-3.39925">
        <ele>113</ele>
        <time>2023-04-13T10:23:31Z</time>
      </trkpt>
      <trkpt lat="48.53888" lon="-3.39911">
        <ele>111</ele>
        <time>2023-04-13T10:23:47Z</time>
      </trkpt>
      <trkpt lat="48.53905" lon="-3.39887">
        <ele>107</ele>
        <time>2023-04-13T10:24:18Z</time>
      </trkpt>
      <trkpt lat="48.53921" lon="-3.39851">
        <ele>102</ele>
        <time>2023-04-13T10:24:57Z</time>
      </trkpt>
      <trkpt lat="48.5395" lon="-3.3981">
        <ele>102</ele>
        <time>2023-04-13T10:25:50Z</time>
      </trkpt>
      <trkpt lat="48.53958" lon="-3.39801">
        <ele>102</ele>
        <time>2023-04-13T10:26:03Z</time>
      </trkpt>
      <trkpt lat="48.53982" lon="-3.39788">
        <ele>102</ele>
        <time>2023-04-13T10:26:37Z</time>
      </trkpt>
      <trkpt lat="48.54" lon="-3.39783">
        <ele>102</ele>
        <time>2023-04-13T10:27:02Z</time>
      </trkpt>
      <trkpt lat="48.54018" lon="-3.39784">
        <ele>103</ele>
        <time>2023-04-13T10:27:26Z</time>
      </trkpt>
      <trkpt lat="48.54041" lon="-3.39793">
        <ele>104</ele>
        <time>2023-04-13T10:27:57Z</time>
      </trkpt>
      <trkpt lat="48.54053" lon="-3.39794">
        <ele>104</ele>
        <time>2023-04-13T10:28:13Z</time>
      </trkpt>
      <trkpt lat="48.54086" lon="-3.39786">
        <ele>103</ele>
        <time>2023-04-13T10:28:58Z</time>
      </trkpt>
      <trkpt lat="48.54113" lon="-3.39783">
        <ele>102</ele>
        <time>2023-04-13T10:29:34Z</time>
      </trkpt>
      <trkpt lat="48.54123" lon="-3.39785">
        <ele>102</ele>
        <time>2023-04-13T10:29:48Z</time>
      </trkpt>
      <trkpt lat="48.5415" lon="-3.39802">
        <ele>104</ele>
        <time>2023-04-13T10:30:27Z</time>
      </trkpt>
      <trkpt lat="48.54171" lon="-3.39809">
        <ele>104</ele>
        <time>2023-04-13T10:30:55Z</time>
      </trkpt>
      <trkpt lat="48.54197" lon="-3.39801">
        <ele>102</ele>
        <time>2023-04-13T10:31:31Z</time>
      </trkpt>
      <trkpt lat="48.54231" lon="-3.39784">
        <ele>100</ele>
        <time>2023-04-13T10:32:18Z</time>
      </trkpt>
      <trkpt lat="48.54242" lon="-3.39786">
        <ele>100</ele>
        <time>2023-04-13T10:32:33Z</time>
      </trkpt>
      <trkpt lat="48.5426" lon="-3.39799">
        <ele>101</ele>
        <time>2023-04-13T10:33:00Z</time>
      </trkpt>
      <trkpt lat="48.54319" lon="-3.39773">
        <ele>98</ele>
        <time>2023-04-13T10:34:22Z</time>
      </trkpt>
      <trkpt lat="48.54324" lon="-3.39761">
        <ele>97</ele>
        <time>2023-04-13T10:34:34Z</time>
      </trkpt>
      <trkpt lat="48.54338" lon="-3.39766">
        <ele>97</ele>
        <time>2023-04-13T10:34:54Z</time>
      </trkpt>
      <trkpt lat="48.54412" lon="-3.39762">
        <ele>95</ele>
        <time>2023-04-13T10:36:32Z</time>
      </trkpt>
      <trkpt lat="48.54425" lon="-3.39766">
        <ele>95</ele>
        <time>2023-04-13T10:36:50Z</time>
      </trkpt>
      <trkpt lat="48.54449" lon="-3.39784">
        <ele>95</ele>
        <time>2023-04-13T10:37:26Z</time>
      </trkpt>
      <trkpt lat="48.54548" lon="-3.39874">
        <ele>96</ele>
        <time>2023-04-13T10:40:00Z</time>
      </trkpt>
      <trkpt lat="48.54593" lon="-3.3991">
        <ele>95</ele>
        <time>2023-04-13T10:41:08Z</time>
      </trkpt>
      <trkpt lat="48.54596" lon="-3.39904">
        <ele>94</ele>
        <time>2023-04-13T10:41:15Z</time>
      </trkpt>
      <trkpt lat="48.54599" lon="-3.39903">
        <ele>94</ele>
        <time>2023-04-13T10:41:19Z</time>
      </trkpt>
      <trkpt lat="48.54623" lon="-3.39914">
        <ele>94</ele>
        <time>2023-04-13T10:41:52Z</time>
      </trkpt>
      <trkpt lat="48.54637" lon="-3.39917">
        <ele>94</ele>
        <time>2023-04-13T10:42:11Z</time>
      </trkpt>
      <trkpt lat="48.54661" lon="-3.39904">
        <ele>93</ele>
        <time>2023-04-13T10:42:45Z</time>
      </trkpt>
      <trkpt lat="48.54697" lon="-3.39881">
        <ele>94</ele>
        <time>2023-04-13T10:43:37Z</time>
      </trkpt>
      <trkpt lat="48.5472" lon="-3.39859">
        <ele>94</ele>
        <time>2023-04-13T10:44:14Z</time>
      </trkpt>
      <trkpt lat="48.5472" lon="-3.39854">
        <ele>94</ele>
        <time>2023-04-13T10:44:18Z</time>
      </trkpt>
      <trkpt lat="48.54712" lon="-3.39838">
        <ele>92</ele>
        <time>2023-04-13T10:44:36Z</time>
      </trkpt>
      <trkpt lat="48.54723" lon="-3.39821">
        <ele>92</ele>
        <time>2023-04-13T10:44:57Z</time>
      </trkpt>
      <trkpt lat="48.54724" lon="-3.39809">
        <ele>91</ele>
        <time>2023-04-13T10:45:07Z</time>
      </trkpt>
      <trkpt lat="48.54716" lon="-3.39819">
        <ele>91</ele>
        <time>2023-04-13T10:45:21Z</time>
      </trkpt>
    </trkseg>
  </trk>
</gpx>